Content
SEND FEEDBACK

Daily
Averages
Monthly
Summary
Spain

ZARAGOZA, SPAIN


Home > Europe > Spain
Elevation: 846 feet     Latitude: 41 40N     Longitude: 001 01W

WEATHER
 
SELECT A DAY
Number of Records: 319,417;   Date Range: 7/1/96 - 10/20/14
 
SHARE

PRINT THIS DATA

[ ← Previous Day ]
WEATHER ALMANAC - FEBRUARY 6, 2013
[ Next Day → ]
[ °C ]   °F
Weather ElementAverageHighLow
Temperature43.4 °F50 °F (12:00 pm)37.4 °F (7:30 am)
Dewpoint33.9 °F37.4 °F (1:30 am)30.2 °F (10:30 am)
Humidity69.3 %81 % (1:30 am)40 % (1:00 pm)
Barometer29.99 in30.09 in (1:00 am)29.92 in (3:00 pm)
Wind Speed22.9 mph38 mph (2:30 pm)
Wind Gust56.4 mph (2:30 pm)
Weather ElementAverage
Visibility6.8 mi
Wind DirectionWNW (299.3 °)

Weather ElementTotal
Precipitation---
Heating Degree Days21.3 (Base 65)
Averaged from 46 records on February 6, 2013
WEATHER CONDITIONS BREAKOUT
WIND DIRECTION BREAKOUT
WEATHER BY HOUR - FEBRUARY 6, 2013
[ °C ]   °F
Local TimeTemperatureDewpointHumidityBarometerVisibilityWind DirectionWind SpeedGust SpeedPrecipitationEventsConditions
12:30 AM42.8 °F33.8 °F70 %30.06 in6.2 miNW (320°)18.4 mph32.2 mphScattered Clouds
1:00 AM43.0 °F36.0 °F67 %30.09 in12.0 miWNW (300°)20.7 mphPartly Cloudy
1:00 AM42.8 °F35.6 °F76 %30.06 in6.2 miNW (310°)21.9 mph35.7 mphScattered Clouds
1:30 AM42.8 °F37.4 °F81 %30.06 in6.2 miWNW (300°)18.4 mphLight Drizzle
3:00 AM41.0 °F35.6 °F81 %30.04 in6.2 miWNW (290°)13.8 mphPartly Cloudy
3:30 AM41.0 °F35.6 °F81 %30.01 in6.2 miWNW (290°)12.7 mphPartly Cloudy
4:00 AM41.0 °F35.6 °F81 %30.01 in6.2 miWNW (300°)15.0 mphPartly Cloudy
4:30 AM39.2 °F33.8 °F81 %30.01 in6.2 miWNW (290°)15.0 mphPartly Cloudy
5:00 AM39.2 °F33.8 °F81 %29.98 in6.2 miWest (280°)16.1 mphPartly Cloudy
5:30 AM39.2 °F33.8 °F81 %29.98 in6.2 miWest (280°)15.0 mphPartly Cloudy
6:00 AM41.0 °F32.0 °F70 %29.98 in6.2 miWest (280°)16.1 mphPartly Cloudy
6:30 AM39.2 °F32.0 °F75 %29.98 in6.2 miWest (270°)12.7 mphPartly Cloudy
7:00 AM40.0 °F32.0 °F65 %30.01 in12.0 miWest (270°)16.1 mphPartly Cloudy
7:00 AM39.2 °F32.0 °F75 %29.98 in6.2 miWest (280°)16.1 mphPartly Cloudy
7:30 AM37.4 °F32.0 °F81 %29.98 in6.2 miWest (280°)13.8 mphPartly Cloudy
8:00 AM41.0 °F32.0 °F70 %29.98 in6.2 miWNW (300°)18.4 mphPartly Cloudy
8:30 AM39.2 °F32.0 °F75 %29.98 in6.2 miWNW (300°)20.7 mphPartly Cloudy
9:30 AM44.6 °F32.0 °F61 %29.98 in6.2 miWest (280°)17.3 mphPartly Cloudy
10:00 AM44.6 °F32.0 °F61 %29.98 in6.2 miWest (280°)16.1 mphPartly Cloudy
10:30 AM46.4 °F30.2 °F53 %29.98 in6.2 miWest (280°)12.7 mphPartly Cloudy
11:00 AM48.2 °F30.2 °F50 %29.98 in6.2 miWNW (290°)16.1 mphScattered Clouds
11:30 AM48.2 °F32.0 °F54 %29.98 in6.2 miWNW (300°)16.1 mphScattered Clouds
12:00 PM50.0 °F33.8 °F54 %29.98 in6.2 miWNW (300°)13.8 mphMostly Cloudy
12:30 PM50.0 °F35.6 °F58 %29.98 in6.2 miNW (310°)21.9 mphMostly Cloudy
1:00 PM50.0 °F33.0 °F40 %29.99 in19.0 miNW (310°)31.1 mphRainLight Rain
1:00 PM50.0 °F35.6 °F58 %29.98 in6.2 miNW (310°)28.8 mph41.4 mphMostly Cloudy
1:30 PM48.2 °F35.6 °F62 %29.95 in6.2 miNW (320°)23.0 mph35.7 mphMostly Cloudy
2:00 PM48.2 °F35.6 °F62 %29.95 in6.2 miNW (310°)25.3 mph40.3 mphScattered Clouds
2:30 PM50.0 °F33.8 °F54 %29.95 in6.2 miNW (310°)38.0 mph56.4 mphScattered Clouds
3:00 PM48.2 °F35.6 °F62 %29.92 in6.2 miNW (310°)33.4 mph46.0 mphScattered Clouds
3:30 PM48.2 °F35.6 °F62 %29.92 in6.2 miNW (310°)33.4 mph47.2 mphMostly Cloudy
4:30 PM48.2 °F32.0 °F54 %29.95 in6.2 miNW (310°)33.4 mph46.0 mphPartly Cloudy
5:00 PM48.2 °F33.8 °F58 %29.95 in6.2 miNW (310°)33.4 mph46.0 mphPartly Cloudy
5:30 PM44.6 °F33.8 °F66 %29.95 in6.2 miNW (310°)32.2 mph44.9 mphPartly Cloudy
6:30 PM42.8 °F33.8 °F70 %29.95 in6.2 miNW (310°)31.1 mph48.3 mphMostly Cloudy
7:00 PM41.0 °F35.6 °F81 %29.98 in6.2 miNW (310°)29.9 mph43.7 mphScattered Clouds
7:00 PM43.0 °F37.0 °F71 %29.99 in9.0 miWNW (300°)26.5 mphRainLight Rain
7:30 PM41.0 °F35.6 °F81 %29.98 in6.2 miWNW (300°)25.3 mph36.8 mphScattered Clouds
8:00 PM41.0 °F33.8 °F76 %29.98 in6.2 miWNW (300°)29.9 mph42.6 mphScattered Clouds
8:30 PM41.0 °F33.8 °F76 %29.98 in6.2 miWNW (300°)27.6 mphScattered Clouds
9:00 PM41.0 °F33.8 °F76 %29.98 in6.2 miNW (310°)31.1 mph42.6 mphPartly Cloudy
9:30 PM39.2 °F33.8 °F81 %29.98 in6.2 miNW (310°)23.0 mphPartly Cloudy
10:00 PM41.0 °F33.8 °F76 %29.98 in6.2 miNW (310°)25.3 mph36.8 mphPartly Cloudy
10:30 PM41.0 °F33.8 °F76 %29.98 in6.2 miNW (310°)32.2 mph47.2 mphPartly Cloudy
11:00 PM39.2 °F33.8 °F81 %29.98 in6.2 miNW (310°)32.2 mph46.0 mphPartly Cloudy
11:30 PM39.2 °F33.8 °F81 %30.01 in6.2 miNW (310°)31.1 mph43.7 mphPartly Cloudy
Hourly data recorded from LEZG, located miles away from Zaragoza, Spain







STORIES FROM OUR PARTNERS